Time,TemperatureF,DewpointF,PressureIn,WindDirection,WindDirectionDegrees,WindSpeedMPH,WindSpeedGustMPH,Humidity,HourlyPrecipIn,Conditions,Clouds,dailyrainin,SoftwareType,DateUTC
2013-02-07 00:02:00,34.0,32.0,29.97,SSE,165,0.0,0.0,93,0.00,,,0.01,,2013-02-07 06:02:00,
2013-02-07 00:11:00,34.0,32.0,29.97,SSE,165,0.0,0.0,93,0.00,,,0.01,,2013-02-07 06:11:00,
2013-02-07 00:22:00,33.0,31.0,29.97,SSE,165,0.0,1.0,94,0.00,,,0.01,,2013-02-07 06:22:00,
2013-02-07 00:32:00,33.0,32.0,29.97,SSE,165,0.0,2.0,95,0.00,,,0.01,,2013-02-07 06:32:00,
2013-02-07 00:43:00,33.0,32.0,29.97,SSE,165,0.0,2.0,95,0.00,,,0.01,,2013-02-07 06:43:00,
2013-02-07 00:52:00,33.0,32.0,29.96,SSE,165,0.0,0.0,95,0.00,,,0.01,,2013-02-07 06:52:00,
2013-02-07 01:01:00,33.0,32.0,29.97,SSE,165,0.0,0.0,95,0.00,,,0.01,,2013-02-07 07:01:00,
2013-02-07 01:11:00,33.0,32.0,29.97,SSE,165,0.0,0.0,95,0.00,,,0.01,,2013-02-07 07:11:00,
2013-02-07 01:22:00,33.0,32.0,29.98,SSE,165,0.0,0.0,95,0.00,,,0.01,,2013-02-07 07:22:00,
2013-02-07 01:32:00,32.0,31.0,29.98,SSE,165,0.0,0.0,95,0.00,,,0.01,,2013-02-07 07:32:00,
2013-02-07 01:42:00,32.0,31.0,29.98,SSE,165,0.0,0.0,95,0.00,,,0.01,,2013-02-07 07:42:00,
2013-02-07 01:52:00,32.0,31.0,29.97,SSE,165,0.0,0.0,95,0.00,,,0.01,,2013-02-07 07:52:00,
2013-02-07 02:01:00,31.0,30.0,29.98,SSE,165,1.0,2.0,96,0.00,,,0.01,,2013-02-07 08:01:00,
2013-02-07 02:11:00,31.0,30.0,29.98,SSE,165,1.0,2.0,96,0.00,,,0.01,,2013-02-07 08:11:00,
2013-02-07 02:21:00,32.0,31.0,29.99,WSW,238,0.0,2.0,97,0.00,,,0.01,,2013-02-07 08:21:00,
2013-02-07 02:32:00,32.0,31.0,29.99,WSW,238,0.0,0.0,96,0.00,,,0.01,,2013-02-07 08:32:00,
2013-02-07 02:42:00,32.0,31.0,29.99,WSW,238,0.0,0.0,96,0.00,,,0.01,,2013-02-07 08:42:00,
2013-02-07 02:52:00,32.0,31.0,29.99,West,267,1.0,2.0,96,0.00,,,0.01,,2013-02-07 08:52:00,
2013-02-07 03:01:00,32.0,31.0,29.99,NNW,333,2.0,5.0,97,0.00,,,0.01,,2013-02-07 09:01:00,
2013-02-07 03:11:00,32.0,31.0,29.99,NNW,333,2.0,5.0,97,0.00,,,0.01,,2013-02-07 09:11:00,
2013-02-07 03:21:00,30.0,29.0,30.00,WNW,298,3.0,9.0,95,0.00,,,0.01,,2013-02-07 09:21:00,
2013-02-07 03:31:00,28.0,27.0,30.00,West,279,2.0,6.0,95,0.00,,,0.01,,2013-02-07 09:31:00,
2013-02-07 03:41:00,28.0,27.0,30.00,West,279,2.0,6.0,95,0.00,,,0.01,,2013-02-07 09:41:00,
2013-02-07 03:52:00,26.0,25.0,30.01,WNW,290,2.0,7.0,95,0.00,,,0.01,,2013-02-07 09:52:00,
2013-02-07 04:01:00,25.0,24.0,30.01,NW,325,2.0,13.0,95,0.00,,,0.01,,2013-02-07 10:01:00,
2013-02-07 04:11:00,25.0,24.0,30.01,NW,325,2.0,13.0,95,0.00,,,0.01,,2013-02-07 10:11:00,
2013-02-07 04:22:00,25.0,24.0,30.01,WNW,282,2.0,9.0,96,0.00,,,0.01,,2013-02-07 10:22:00,
2013-02-07 04:32:00,24.0,23.0,30.01,NW,312,3.0,10.0,96,0.00,,,0.01,,2013-02-07 10:32:00,
2013-02-07 04:42:00,24.0,23.0,30.01,NW,312,3.0,10.0,96,0.00,,,0.01,,2013-02-07 10:42:00,
2013-02-07 04:52:00,24.0,23.0,30.01,NW,309,4.0,17.0,96,0.00,,,0.01,,2013-02-07 10:52:00,
2013-02-07 05:01:00,24.0,23.0,30.01,WNW,284,4.0,13.0,96,0.00,,,0.01,,2013-02-07 11:01:00,
2013-02-07 05:11:00,24.0,23.0,30.01,WNW,284,4.0,13.0,96,0.00,,,0.01,,2013-02-07 11:11:00,
2013-02-07 05:22:00,24.0,23.0,30.01,WNW,290,4.0,17.0,97,0.00,,,0.01,,2013-02-07 11:22:00,
2013-02-07 05:32:00,24.0,23.0,30.02,West,267,4.0,11.0,97,0.00,,,0.01,,2013-02-07 11:32:00,
2013-02-07 05:44:00,24.0,23.0,30.02,West,267,4.0,11.0,97,0.00,,,0.01,,2013-02-07 11:44:00,
2013-02-07 05:52:00,24.0,23.0,30.02,NNW,338,3.0,14.0,97,0.00,,,0.01,,2013-02-07 11:52:00,
2013-02-07 06:02:00,25.0,24.0,30.02,NNW,327,3.0,14.0,97,0.00,,,0.01,,2013-02-07 12:02:00,
2013-02-07 06:11:00,25.0,24.0,30.02,NNW,327,3.0,14.0,97,0.00,,,0.01,,2013-02-07 12:11:00,
2013-02-07 06:22:00,25.0,24.0,30.03,West,271,2.0,9.0,97,0.00,,,0.01,,2013-02-07 12:22:00,
2013-02-07 06:32:00,25.0,24.0,30.04,North,355,5.0,12.0,97,0.00,,,0.01,,2013-02-07 12:32:00,
2013-02-07 06:42:00,25.0,24.0,30.04,North,355,5.0,12.0,97,0.00,,,0.01,,2013-02-07 12:42:00,
2013-02-07 06:53:00,25.0,24.0,30.04,North,360,2.0,10.0,97,0.00,,,0.01,,2013-02-07 12:53:00,
2013-02-07 07:02:00,25.0,24.0,30.04,WNW,291,3.0,10.0,97,0.00,,,0.01,,2013-02-07 13:02:00,
2013-02-07 07:12:00,25.0,24.0,30.04,WNW,291,3.0,10.0,97,0.00,,,0.01,,2013-02-07 13:12:00,
2013-02-07 07:22:00,25.0,24.0,30.04,North,9,1.0,7.0,96,0.00,,,0.01,,2013-02-07 13:22:00,
2013-02-07 07:32:00,25.0,24.0,30.04,WNW,283,2.0,11.0,96,0.00,,,0.01,,2013-02-07 13:32:00,
2013-02-07 07:42:00,25.0,24.0,30.04,WNW,283,2.0,11.0,96,0.00,,,0.01,,2013-02-07 13:42:00,
2013-02-07 07:52:00,25.0,24.0,30.04,NW,325,2.0,8.0,96,0.00,,,0.01,,2013-02-07 13:52:00,
2013-02-07 08:01:00,25.0,24.0,30.06,WNW,282,2.0,12.0,96,0.00,,,0.01,,2013-02-07 14:01:00,
2013-02-07 08:11:00,25.0,24.0,30.06,WNW,282,2.0,12.0,96,0.00,,,0.01,,2013-02-07 14:11:00,
2013-02-07 08:22:00,25.0,24.0,30.07,NNW,331,3.0,7.0,96,0.00,,,0.01,,2013-02-07 14:22:00,
2013-02-07 08:32:00,24.0,23.0,30.09,NW,309,4.0,14.0,96,0.00,,,0.01,,2013-02-07 14:32:00,
2013-02-07 08:42:00,24.0,23.0,30.09,NW,309,4.0,14.0,96,0.00,,,0.01,,2013-02-07 14:42:00,
2013-02-07 08:52:00,24.0,23.0,30.09,NW,309,4.0,14.0,96,0.00,,,0.01,,2013-02-07 14:52:00,
2013-02-07 09:02:00,24.0,23.0,30.10,NW,314,4.0,11.0,96,0.00,,,0.01,,2013-02-07 15:02:00,
2013-02-07 09:11:00,24.0,23.0,30.10,NW,314,4.0,11.0,96,0.00,,,0.01,,2013-02-07 15:11:00,
2013-02-07 09:22:00,24.0,23.0,30.10,NW,315,2.0,7.0,96,0.00,,,0.01,,2013-02-07 15:22:00,
2013-02-07 09:32:00,25.0,24.0,30.10,NNW,332,2.0,9.0,96,0.00,,,0.01,,2013-02-07 15:32:00,
2013-02-07 09:42:00,25.0,24.0,30.10,NNW,332,2.0,9.0,96,0.00,,,0.01,,2013-02-07 15:42:00,
2013-02-07 09:52:00,25.0,24.0,30.10,WNW,298,2.0,7.0,96,0.00,,,0.01,,2013-02-07 15:52:00,
2013-02-07 10:01:00,25.0,24.0,30.11,NNW,329,3.0,6.0,96,0.00,,,0.01,,2013-02-07 16:01:00,
2013-02-07 10:11:00,25.0,24.0,30.11,NNW,329,3.0,6.0,96,0.00,,,0.01,,2013-02-07 16:11:00,
2013-02-07 10:21:00,25.0,24.0,30.11,West,278,3.0,12.0,96,0.00,,,0.01,,2013-02-07 16:21:00,
2013-02-07 10:32:00,25.0,24.0,30.11,NW,322,4.0,10.0,96,0.00,,,0.01,,2013-02-07 16:32:00,
2013-02-07 10:42:00,25.0,24.0,30.11,NW,322,4.0,10.0,96,0.00,,,0.01,,2013-02-07 16:42:00,
2013-02-07 10:52:00,25.0,24.0,30.12,NNE,22,4.0,11.0,96,0.00,,,0.01,,2013-02-07 16:52:00,
2013-02-07 11:01:00,25.0,24.0,30.12,North,360,4.0,9.0,96,0.00,,,0.01,,2013-02-07 17:01:00,
2013-02-07 11:11:00,25.0,24.0,30.12,North,360,4.0,9.0,96,0.00,,,0.01,,2013-02-07 17:11:00,
2013-02-07 11:21:00,25.0,24.0,30.12,WNW,301,3.0,10.0,97,0.00,,,0.01,,2013-02-07 17:21:00,
2013-02-07 11:32:00,25.0,24.0,30.12,WNW,300,5.0,11.0,97,0.00,,,0.01,,2013-02-07 17:32:00,
2013-02-07 11:43:00,25.0,24.0,30.12,WNW,300,5.0,11.0,97,0.00,,,0.01,,2013-02-07 17:43:00,
2013-02-07 11:52:00,25.0,24.0,30.12,WNW,292,4.0,13.0,97,0.00,,,0.01,,2013-02-07 17:52:00,
2013-02-07 12:01:00,25.0,24.0,30.13,WNW,303,3.0,15.0,96,0.00,,,0.01,,2013-02-07 18:01:00,
2013-02-07 12:11:00,25.0,24.0,30.13,WNW,303,3.0,15.0,96,0.00,,,0.01,,2013-02-07 18:11:00,
2013-02-07 12:23:00,25.0,24.0,30.12,NW,306,4.0,12.0,97,0.00,,,0.01,,2013-02-07 18:23:00,
2013-02-07 12:31:00,25.0,24.0,30.13,NW,322,3.0,14.0,97,0.00,,,0.01,,2013-02-07 18:31:00,
2013-02-07 12:42:00,25.0,24.0,30.13,NW,322,3.0,14.0,97,0.00,,,0.01,,2013-02-07 18:42:00,
2013-02-07 12:52:00,25.0,24.0,30.12,NNW,337,4.0,9.0,96,0.00,,,0.01,,2013-02-07 18:52:00,
2013-02-07 13:01:00,25.0,24.0,30.12,NNW,332,4.0,16.0,96,0.00,,,0.01,,2013-02-07 19:01:00,
2013-02-07 13:11:00,25.0,24.0,30.12,NNW,332,4.0,16.0,96,0.00,,,0.01,,2013-02-07 19:11:00,
2013-02-07 13:22:00,25.0,24.0,30.12,NNW,332,4.0,16.0,96,0.00,,,0.01,,2013-02-07 19:22:00,
2013-02-07 13:32:00,25.0,24.0,30.12,NNW,332,4.0,16.0,96,0.00,,,0.01,,2013-02-07 19:32:00,
2013-02-07 13:42:00,25.0,24.0,30.12,NNW,332,4.0,16.0,96,0.00,,,0.01,,2013-02-07 19:42:00,
2013-02-07 13:52:00,25.0,24.0,30.11,WNW,292,5.0,9.0,96,0.00,,,0.01,,2013-02-07 19:52:00,
2013-02-07 14:01:00,25.0,24.0,30.12,NW,304,3.0,12.0,96,0.00,,,0.01,,2013-02-07 20:01:00,
2013-02-07 14:11:00,25.0,24.0,30.12,NW,304,3.0,12.0,96,0.00,,,0.01,,2013-02-07 20:11:00,
2013-02-07 14:22:00,25.0,24.0,30.12,NW,304,3.0,9.0,96,0.00,,,0.00,,2013-02-07 20:22:00,
2013-02-07 14:31:00,26.0,25.0,30.11,NNW,335,4.0,12.0,96,0.00,,,0.00,,2013-02-07 20:31:00,
2013-02-07 14:42:00,26.0,25.0,30.11,NNW,335,4.0,12.0,96,0.00,,,0.00,,2013-02-07 20:42:00,
2013-02-07 14:52:00,26.0,25.0,30.12,North,5,4.0,10.0,96,0.00,,,0.00,,2013-02-07 20:52:00,
2013-02-07 15:01:00,26.0,25.0,30.12,NW,319,3.0,11.0,96,0.00,,,0.00,,2013-02-07 21:01:00,
2013-02-07 15:11:00,26.0,25.0,30.12,NW,319,3.0,11.0,96,0.00,,,0.00,,2013-02-07 21:11:00,
2013-02-07 15:21:00,26.0,25.0,30.14,NNW,327,4.0,11.0,96,0.00,,,0.00,,2013-02-07 21:21:00,
2013-02-07 15:32:00,26.0,25.0,30.14,NW,316,4.0,8.0,96,0.00,,,0.00,,2013-02-07 21:32:00,
2013-02-07 15:42:00,26.0,25.0,30.14,NW,316,4.0,8.0,96,0.00,,,0.00,,2013-02-07 21:42:00,
2013-02-07 15:52:00,26.0,25.0,30.15,NNW,327,2.0,10.0,96,0.00,,,0.00,,2013-02-07 21:52:00,
2013-02-07 16:02:00,26.0,25.0,30.15,NNE,19,4.0,11.0,96,0.00,,,0.00,,2013-02-07 22:02:00,
2013-02-07 16:11:00,26.0,25.0,30.15,NNE,19,4.0,11.0,96,0.00,,,0.00,,2013-02-07 22:11:00,
2013-02-07 16:21:00,26.0,25.0,30.15,WNW,287,3.0,9.0,96,0.00,,,0.00,,2013-02-07 22:21:00,
2013-02-07 16:32:00,26.0,25.0,30.16,NNE,21,3.0,9.0,96,0.00,,,0.00,,2013-02-07 22:32:00,
2013-02-07 16:42:00,26.0,25.0,30.16,NNE,21,3.0,9.0,96,0.00,,,0.00,,2013-02-07 22:42:00,
2013-02-07 16:52:00,26.0,25.0,30.16,WNW,300,3.0,10.0,96,0.00,,,0.00,,2013-02-07 22:52:00,
2013-02-07 17:01:00,26.0,25.0,30.17,North,350,3.0,10.0,96,0.00,,,0.00,,2013-02-07 23:01:00,
2013-02-07 17:11:00,26.0,25.0,30.17,North,350,3.0,10.0,96,0.00,,,0.00,,2013-02-07 23:11:00,
2013-02-07 17:21:00,26.0,25.0,30.18,WNW,284,3.0,8.0,96,0.00,,,0.00,,2013-02-07 23:21:00,
2013-02-07 17:32:00,26.0,25.0,30.18,NNW,346,5.0,8.0,95,0.00,,,0.00,,2013-02-07 23:32:00,
2013-02-07 17:41:00,26.0,25.0,30.18,NNW,346,5.0,8.0,95,0.00,,,0.00,,2013-02-07 23:41:00,
2013-02-07 17:52:00,26.0,25.0,30.19,NW,326,4.0,8.0,95,0.00,,,0.00,,2013-02-07 23:52:00,
2013-02-07 18:01:00,26.0,25.0,30.20,North,355,4.0,9.0,94,0.00,,,0.00,,2013-02-08 00:01:00,
2013-02-07 18:11:00,26.0,25.0,30.20,North,355,4.0,9.0,94,0.00,,,0.00,,2013-02-08 00:11:00,
2013-02-07 18:21:00,26.0,25.0,30.21,North,360,2.0,12.0,94,0.00,,,0.00,,2013-02-08 00:21:00,
2013-02-07 18:31:00,26.0,25.0,30.21,NNW,338,3.0,8.0,94,0.00,,,0.00,,2013-02-08 00:31:00,
2013-02-07 18:42:00,26.0,25.0,30.21,NNW,338,3.0,8.0,94,0.00,,,0.00,,2013-02-08 00:42:00,
2013-02-07 18:52:00,26.0,24.0,30.22,WSW,257,3.0,12.0,93,0.00,,,0.00,,2013-02-08 00:52:00,
2013-02-07 19:01:00,26.0,24.0,30.23,NW,309,2.0,8.0,93,0.00,,,0.00,,2013-02-08 01:01:00,
2013-02-07 19:11:00,26.0,24.0,30.23,NW,309,2.0,8.0,93,0.00,,,0.00,,2013-02-08 01:11:00,
2013-02-07 19:21:00,26.0,24.0,30.23,NNW,340,4.0,10.0,92,0.00,,,0.00,,2013-02-08 01:21:00,
2013-02-07 19:31:00,26.0,24.0,30.23,NNW,330,3.0,7.0,91,0.00,,,0.00,,2013-02-08 01:31:00,
2013-02-07 19:41:00,26.0,24.0,30.23,NNW,330,3.0,7.0,91,0.00,,,0.00,,2013-02-08 01:41:00,
2013-02-07 19:52:00,26.0,24.0,30.23,NNW,344,3.0,13.0,91,0.00,,,0.00,,2013-02-08 01:52:00,
2013-02-07 20:01:00,26.0,24.0,30.24,NNW,348,2.0,8.0,92,0.00,,,0.00,,2013-02-08 02:01:00,
2013-02-07 20:11:00,26.0,24.0,30.24,NNW,348,2.0,8.0,92,0.00,,,0.00,,2013-02-08 02:11:00,
2013-02-07 20:21:00,26.0,24.0,30.24,NW,317,2.0,6.0,92,0.00,,,0.00,,2013-02-08 02:21:00,
2013-02-07 20:32:00,26.0,24.0,30.24,NW,317,2.0,6.0,92,0.00,,,0.00,,2013-02-08 02:32:00,
2013-02-07 20:42:00,26.0,24.0,30.24,NW,317,2.0,6.0,92,0.00,,,0.00,,2013-02-08 02:42:00,
2013-02-07 20:52:00,25.0,23.0,30.25,North,5,4.0,11.0,92,0.00,,,0.00,,2013-02-08 02:52:00,
2013-02-07 21:01:00,25.0,23.0,30.25,NW,315,4.0,11.0,92,0.00,,,0.00,,2013-02-08 03:01:00,
2013-02-07 21:12:00,25.0,23.0,30.25,NW,315,4.0,11.0,92,0.00,,,0.00,,2013-02-08 03:12:00,
2013-02-07 21:22:00,25.0,23.0,30.25,NW,317,3.0,9.0,92,0.00,,,0.00,,2013-02-08 03:22:00,
2013-02-07 21:32:00,25.0,23.0,30.26,WNW,290,3.0,8.0,91,0.00,,,0.00,,2013-02-08 03:32:00,
2013-02-07 21:41:00,25.0,23.0,30.26,WNW,290,3.0,8.0,91,0.00,,,0.00,,2013-02-08 03:41:00,
2013-02-07 21:52:00,25.0,22.0,30.27,NNW,339,3.0,8.0,90,0.00,,,0.00,,2013-02-08 03:52:00,
2013-02-07 22:01:00,24.0,22.0,30.26,NW,324,2.0,11.0,90,0.00,,,0.00,,2013-02-08 04:01:00,
2013-02-07 22:11:00,24.0,22.0,30.26,NW,324,2.0,11.0,90,0.00,,,0.00,,2013-02-08 04:11:00,
2013-02-07 22:21:00,24.0,22.0,30.27,West,277,1.0,6.0,90,0.00,,,0.00,,2013-02-08 04:21:00,
2013-02-07 22:32:00,23.0,21.0,30.27,WNW,292,1.0,7.0,91,0.00,,,0.00,,2013-02-08 04:32:00,
2013-02-07 22:41:00,23.0,21.0,30.27,WNW,292,1.0,7.0,91,0.00,,,0.00,,2013-02-08 04:41:00,
2013-02-07 22:52:00,23.0,21.0,30.27,WNW,296,2.0,8.0,92,0.00,,,0.00,,2013-02-08 04:52:00,
2013-02-07 23:02:00,23.0,21.0,30.27,NNW,342,0.0,3.0,92,0.00,,,0.00,,2013-02-08 05:02:00,
2013-02-07 23:11:00,23.0,21.0,30.27,NNW,342,0.0,3.0,92,0.00,,,0.00,,2013-02-08 05:11:00,
2013-02-07 23:22:00,23.0,21.0,30.27,NNW,337,1.0,4.0,91,0.00,,,0.00,,2013-02-08 05:22:00,
2013-02-07 23:32:00,23.0,21.0,30.27,NW,323,0.0,3.0,91,0.00,,,0.00,,2013-02-08 05:32:00,
2013-02-07 23:42:00,23.0,21.0,30.27,NW,323,0.0,3.0,91,0.00,,,0.00,,2013-02-08 05:42:00,
2013-02-07 23:52:00,23.0,21.0,30.27,NNW,335,1.0,4.0,92,0.00,,,0.00,,2013-02-08 05:52:00,